Location: Apeadero de Los Molinos-Guadarrama
(40.7091°N, 4.0689°W)
Time: 12:25:36
(UTC+00:00)

USA 186 - Pass Details

Date: 14 May 2021
Orbit: 266 x 448 km, 96.9° (Epoch: 17 June)

Event Time Altitude Azimuth Distance (km) Brightness Sun altitude
Exits shadow 20:03:40 -1° 176° (S) 2,077 4.9 -7.1°
Rises 20:03:49 0° 177° (S) 2,010 4.9 -7.1°
Reaches altitude 10° 20:05:44 10° 183° (S) 1,161 3.7 -7.4°
Maximum altitude 20:08:07 48° 259° (W) 389 2.0 -7.8°
Drops below altitude 10° 20:10:24 10° 337° (NNW) 1,117 4.9 -8.2°
Sets 20:12:14 0° 343° (NNW) 1,919 6.0 -8.5°
